Location: Kershaw
(34.5481°N, 80.5823°W)
Time: 15:21:54
(UTC+00:00)

Vanguard 1 Rocket - Pass Details

Date: 04 October 2022
Orbit: 650 x 4225 km, 34.3° (Epoch: 08 December)

Event Time Altitude Azimuth Distance (km) Brightness Sun altitude
Rises 01:29:30 0° 252° (WSW) 8,251 13.0 -30.6°
Reaches altitude 10° 01:35:42 10° 252° (WSW) 6,922 12.4 -31.8°
Maximum altitude 01:56:43 83° 168° (SSE) 2,450 9.2 -35.8°
Enters shadow 01:59:07 67° 97° (E) 2,373 9.0 -36.3°
Drops below altitude 10° 02:07:11 10° 82° (E) 3,762 - -37.8°
Sets 02:09:31 0° 82° (E) 4,437 - -38.2°
